Probability
4 8 13 15 16 18 20 19 17 17 18 17 16 13 7 3 2 1 1 1 1 1 1 1 1 0 0 0 0 0 0 0 0 0 0 0 0 0 0 0 0 0 0
7 11 16 19 21 22 23 22 19 18 17 18 17 13 7 2 1 0 1 1 2 2 2 2 2 1 1 0 0 0 0 0 0 0 0 0 0 0 0 0 0 0 0
11 15 20 24 27 28 28 25 24 20 18 18 18 14 8 3 1 0 1 3 5 5 4 3 2 3 3 2 1 1 1 0 0 0 1 1 0 0 0 0 0 0 0
13 19 25 28 31 32 30 28 28 25 21 19 20 17 10 4 2 2 4 6 7 7 6 4 3 4 4 4 3 2 2 1 1 1 2 2 1 1 1 0 0 0 0
13 20 27 30 32 32 30 30 32 31 26 22 23 22 16 9 6 6 8 10 9 7 6 6 7 7 6 5 4 4 4 4 3 2 2 2 2 4 4 2 0 0 0
13 17 25 30 30 28 28 31 37 38 32 27 26 27 24 18 12 10 12 13 11 8 6 6 9 10 7 6 7 7 8 8 8 6 4 3 4 7 7 3 1 0 0
14 16 22 27 27 27 30 35 42 44 38 33 31 30 28 22 16 12 12 12 10 8 5 6 9 9 9 9 10 10 11 12 12 11 9 7 6 8 9 5 2 1 1
14 15 18 21 23 28 33 38 43 46 42 36 34 33 30 24 19 14 10 9 9 7 6 6 7 8 9 11 13 15 15 16 16 14 14 13 11 10 10 9 7 5 4
16 14 14 16 20 27 34 38 43 45 42 37 34 33 31 27 22 17 12 10 9 7 7 7 7 9 12 14 16 18 19 19 17 16 16 18 16 13 13 14 15 13 10
18 16 15 18 22 28 33 37 41 43 42 38 33 30 30 29 25 20 16 14 11 9 9 9 9 12 15 16 16 16 16 16 15 15 16 17 18 16 15 16 18 17 14
17 17 20 24 28 31 34 37 40 42 42 40 35 33 33 31 26 20 18 16 14 13 12 12 13 14 14 13 12 11 10 11 11 11 11 13 15 16 16 18 19 18 15
15 18 25 31 33 33 33 36 39 41 41 41 39 37 36 33 26 21 18 17 16 15 14 15 16 14 12 11 9 8 7 8 8 7 7 8 10 13 17 21 20 18 16
19 24 31 35 36 33 32 35 40 40 39 38 36 34 32 30 25 20 17 16 17 16 15 16 17 15 12 11 9 8 8 8 7 6 5 5 6 9 14 18 18 17 16
28 32 36 39 38 36 35 37 39 38 36 34 31 28 25 23 20 17 15 15 16 16 16 16 15 14 13 11 10 9 9 9 8 6 5 4 3 4 6 9 13 15 15
34 38 41 41 40 38 37 37 37 36 35 33 29 24 20 17 16 14 13 14 15 16 15 14 13 12 11 10 8 8 9 9 8 6 4 3 2 1 1 3 6 9 10
34 40 42 40 38 37 37 36 35 35 35 34 28 21 18 17 15 13 12 14 15 16 15 14 14 12 10 7 5 5 8 8 7 5 4 3 2 1 0 1 2 3 5
34 38 41 39 37 36 35 33 34 35 34 31 25 20 17 16 15 14 13 13 14 15 16 15 15 12 7 4 2 3 6 7 5 4 4 4 3 2 2 2 1 1 1
36 38 39 38 36 34 31 28 29 30 30 26 22 19 18 17 15 13 13 12 13 15 16 15 14 10 6 3 1 1 4 5 4 4 4 4 4 3 3 3 2 1 1
38 39 37 34 31 30 28 26 25 25 23 21 21 19 19 17 15 13 12 12 13 14 13 12 11 9 6 3 1 1 2 3 3 4 3 3 3 2 1 2 3 3 2
41 40 37 32 28 26 27 27 25 21 19 19 19 19 18 17 15 13 12 12 12 11 10 9 8 6 4 3 1 1 3 3 3 3 3 1 1 0 0 1 2 3 3
41 39 36 31 26 24 25 25 22 18 16 16 17 17 16 15 13 12 11 11 9 8 7 7 6 4 3 3 1 1 2 3 3 3 2 1 0 0 0 0 1 1 2
37 35 31 27 24 21 20 19 16 14 14 15 16 16 16 14 12 10 9 8 7 5 5 5 5 3 2 2 1 1 1 2 3 3 2 1 0 0 0 0 0 0 1
31 27 22 20 18 16 15 14 12 11 12 14 14 14 14 13 10 7 5 4 3 2 2 3 3 1 1 1 1 0 0 1 2 3 2 1 0 0 0 0 0 0 0
24 19 13 11 11 10 9 9 9 10 11 11 11 11 11 10 8 5 2 1 1 0 0 1 1 0 0 0 0 0 0 0 1 2 1 0 0 0 0 0 0 0 0
18 14 9 7 6 5 5 5 7 8 9 10 10 9 9 7 5 3 1 0 1 0 0 0 0 0 0 0 0 0 0 0 0 0 0 0 0 0 0 0 0 0 0
16 13 9 6 5 4 4 4 5 7 9 10 10 9 8 6 4 2 0 0 1 0 0 0 0 0 0 0 0 0 0 0 0 0 0 0 0 0 0 0 0 0 0
Wind_Speed
15 15 15 14 14 13 13 13 12 12 10 8 8 7 7 7 6 6 7 7 7 7 6 5 5 5 5 4 5 4 5 4 3 4 4 4 6 5 4 5 5 6 6
15 15 15 15 15 14 14 14 13 12 12 9 7 6 5 6 6 6 7 8 8 7 7 7 6 6 5 6 6 5 5 4 4 4 4 4 5 6 6 5 6 6 6
16 16 17 16 16 16 16 13 14 14 13 11 8 6 5 5 6 7 7 8 9 9 8 7 7 6 7 6 6 6 7 5 5 5 4 4 3 2 4 6 5 5 5
15 16 16 17 17 16 15 14 14 13 13 12 10 11 9 8 8 7 6 7 9 9 9 9 9 8 7 6 7 7 6 6 5 4 5 6 5 5 3 5 6 6 6
14 15 16 16 15 15 14 13 13 13 13 12 12 11 10 9 7 7 7 7 8 9 10 10 9 8 7 8 7 5 7 6 6 6 5 5 5 7 6 5 4 5 6
12 13 14 14 13 14 13 13 14 14 14 14 13 13 12 10 9 9 7 7 6 7 10 10 9 9 8 8 8 7 8 7 7 6 5 5 5 6 6 6 6 5 5
11 13 14 14 13 14 14 13 14 14 14 14 13 13 12 11 11 9 8 7 7 7 8 9 8 8 8 8 8 8 8 8 8 7 6 6 6 6 6 6 7 6 5
10 12 13 14 14 14 14 13 13 13 13 13 12 11 11 9 8 9 8 8 7 7 7 8 8 8 8 8 8 7 8 7 8 8 7 6 6 5 6 6 6 7 6
9 11 12 12 12 13 13 13 13 11 11 11 11 10 11 10 9 8 8 7 7 6 7 7 8 8 8 8 8 7 7 6 7 7 7 6 5 5 5 5 5 6 7
7 8 9 10 11 11 12 12 12 11 11 11 10 9 10 10 9 8 8 8 7 7 7 7 7 7 8 8 8 7 6 6 6 5 6 6 5 4 5 5 5 5 6
7 8 8 9 10 10 10 11 11 10 10 9 9 8 9 9 8 8 8 7 7 7 7 7 7 7 6 6 6 7 7 7 6 6 6 6 6 4 4 4 5 5 5
6 7 8 8 9 9 9 9 9 9 9 8 8 8 7 7 7 7 6 6 6 6 6 5 5 6 6 5 6 6 6 6 6 5 5 6 5 6 5 4 4 4 4
6 6 7 7 8 8 8 8 8 8 8 7 7 6 6 6 6 5 5 5 4 4 4 3 4 4 4 4 4 5 4 4 3 3 4 4 4 4 3 4 4 3 3
6 6 6 6 6 7 7 7 7 6 6 6 6 5 5 4 5 5 4 4 4 4 3 3 3 3 3 3 3 3 3 3 2 1 2 2 2 3 2 2 3 2 2
7 7 7 6 6 7 6 6 6 6 6 6 5 5 4 4 4 3 4 4 4 4 4 3 3 2 2 1 1 2 3 3 2 1 0 1 3 4 3 2 2 2 2
8 8 7 7 7 7 7 7 7 6 6 6 6 5 5 4 4 3 3 4 4 3 3 3 3 2 2 4 3 1 2 2 2 2 2 2 3 5 5 6 6 5 2
8 8 8 8 7 7 7 7 7 6 6 6 6 5 4 4 4 4 4 4 4 4 3 4 4 4 5 6 5 4 3 4 4 3 2 3 4 3 4 5 5 7 7
9 9 9 9 8 8 8 8 8 7 7 7 6 6 5 5 5 5 5 5 4 4 4 4 4 5 5 6 5 5 5 6 6 5 5 4 4 5 4 5 6 7 8
9 9 9 10 9 9 9 9 8 8 7 7 6 6 5 6 6 6 5 5 5 5 5 5 5 5 6 6 5 4 5 6 6 6 6 5 5 7 5 5 6 6 6
9 9 9 10 10 9 9 9 9 8 7 7 6 6 6 6 6 6 6 5 5 6 6 6 7 7 7 7 7 4 4 5 5 5 7 10 8 8 6 4 5 5 5
10 10 10 9 9 9 9 9 9 8 7 7 7 7 7 7 6 6 6 7 7 8 7 8 7 8 7 8 9 7 4 4 5 5 6 7 9 9 9 7 6 4 3
11 11 10 9 8 8 9 10 9 8 7 8 8 8 7 7 7 7 7 7 8 8 7 7 7 6 7 8 9 10 8 6 6 6 6 6 8 10 9 7 6 4 2
10 10 10 10 8 8 8 10 8 7 8 9 8 8 8 8 7 7 7 6 5 5 5 5 6 6 6 7 10 11 10 9 7 7 9 7 6 7 8 7 5 3 4
10 10 10 9 8 8 8 9 8 8 9 9 8 8 8 8 8 6 5 5 5 5 5 5 6 6 5 5 5 6 7 8 7 7 7 7 5 6 6 5 5 6 6
9 9 9 9 9 8 8 8 8 8 9 9 8 8 8 9 9 9 9 7 8 6 4 5 5 5 6 6 7 5 5 5 5 4 5 5 5 5 6 6 6 5 5
9 9 10 10 9 8 8 7 7 7 8 8 7 6 7 7 8 9 10 17 14 15 15 12 9 9 9 8 9 9 8 6 2 3 6 6 6 6 6 5 6 6 6
Wind_Direction
192 188 189 189 187 187 187 190 195 191 192 192 195 195 198 202 204 208 206 209 213 209 216 226 199 220 220 224 223 228 222 233 238 254 253 241 235 235 232 235 241 228 225
189 187 190 190 190 189 190 190 194 194 198 197 200 201 206 210 209 211 204 214 215 218 216 223 223 217 222 223 229 234 249 242 229 251 262 253 225 217 221 225 229 235 228
192 189 190 192 193 193 194 194 195 195 201 198 197 195 201 217 209 211 209 212 215 218 227 223 232 227 228 223 226 228 238 247 240 237 253 269 267 255 202 216 225 229 236
196 191 191 193 196 196 195 198 195 198 198 198 203 202 209 216 218 216 212 211 216 220 219 225 228 230 232 227 230 228 236 245 252 239 241 260 291 284 263 218 211 217 229
196 194 194 194 195 194 194 194 194 197 198 203 207 210 218 223 222 220 217 219 217 222 222 222 225 226 233 233 236 228 233 236 247 252 243 242 245 251 264 273 257 231 226
196 194 192 188 190 191 192 192 193 197 199 204 209 213 219 223 225 222 222 217 218 221 222 225 224 226 229 228 228 227 228 240 248 256 252 246 249 250 255 264 264 259 247
192 190 187 185 186 189 191 193 193 197 199 204 208 211 217 220 224 225 224 223 226 221 220 225 223 227 226 229 228 227 235 234 238 244 250 249 253 259 261 266 271 269 260
186 187 188 186 187 187 188 192 193 196 199 204 207 210 213 217 222 221 230 224 227 228 224 223 225 225 225 227 223 229 229 230 234 241 247 255 258 260 258 260 269 273 265
182 184 187 186 187 186 188 191 190 194 198 202 205 209 212 218 223 218 223 230 229 226 220 221 225 223 225 229 226 231 234 233 235 238 236 244 252 257 260 256 254 262 271
171 174 178 181 182 182 183 188 189 192 196 198 204 206 212 214 215 218 221 227 230 231 222 219 224 225 226 227 227 230 230 232 237 242 246 247 249 252 256 253 252 254 261
165 167 168 171 175 177 179 184 186 188 191 196 202 210 211 209 210 214 218 218 224 226 224 222 221 221 224 226 227 233 230 230 232 236 236 239 246 249 253 251 249 249 252
156 157 159 163 168 172 174 176 180 184 187 191 195 203 210 207 207 209 213 216 218 221 221 219 219 220 223 226 232 236 232 232 231 232 235 242 240 242 252 253 248 249 250
148 146 150 158 163 168 172 171 176 179 180 181 186 192 199 198 200 203 202 204 208 212 209 205 217 226 225 225 232 229 230 230 232 240 244 253 257 263 262 259 257 254 250
147 144 145 149 151 160 164 164 166 163 164 165 170 175 183 181 184 188 191 192 187 184 189 195 204 215 216 210 211 214 213 210 213 229 254 276 283 285 289 276 275 272 260
149 145 143 138 143 151 154 153 146 142 145 146 146 150 153 158 164 170 170 169 170 174 174 175 179 183 185 186 182 189 186 181 179 174 143 40 52 36 10 340 327 303 288
150 143 139 137 140 141 142 136 131 130 136 137 135 139 142 143 141 149 152 151 150 152 154 148 145 132 98 60 57 60 116 115 117 105 87 90 83 75 62 48 36 18 348
147 140 138 136 132 129 131 129 125 127 128 126 125 125 127 126 130 135 129 131 132 127 122 118 115 99 68 66 67 58 87 86 78 79 72 65 64 65 74 71 63 46 31
144 139 136 132 127 126 126 124 123 125 123 118 115 114 116 117 117 115 112 112 113 111 106 106 106 100 79 72 78 80 87 77 68 61 57 59 50 42 53 65 63 55 45
137 135 133 129 125 122 122 122 121 119 113 106 103 105 108 107 108 106 103 105 106 104 101 98 96 95 82 65 71 89 96 87 75 64 54 51 57 40 51 80 75 71 70
126 127 126 124 120 116 118 122 119 114 107 104 103 100 99 100 105 108 106 106 105 102 98 90 82 83 78 57 50 61 101 96 89 76 64 56 50 39 39 74 79 73 62
124 124 120 116 116 119 120 116 111 107 107 106 102 98 98 99 101 102 102 105 102 97 91 87 82 77 74 71 54 44 79 94 90 80 72 60 53 52 45 48 59 50 47
127 124 118 113 114 118 117 110 105 105 105 104 102 98 95 95 97 98 98 101 106 105 99 95 88 78 71 63 61 58 59 65 85 82 81 76 68 66 60 61 46 15 15
123 121 118 114 110 110 112 109 106 111 110 107 102 99 95 90 92 97 101 102 104 107 106 103 98 91 87 83 76 74 71 71 82 82 81 79 79 92 79 62 32 27 51
123 122 119 113 107 105 106 109 113 116 114 110 106 104 100 93 83 79 82 85 89 99 103 101 97 93 86 78 88 98 102 107 106 105 112 109 88 85 87 81 62 54 43
122 122 118 117 114 112 110 114 118 120 116 114 112 108 100 93 83 69 50 57 54 46 71 91 95 96 89 55 42 62 77 80 86 108 105 93 88 78 72 70 64 60 59
123 121 120 118 117 115 112 113 119 124 124 120 119 115 112 108 106 101 83 55 60 59 57 57 73 78 81 84 74 70 67 65 40 99 90 81 76 72 67 64 65 59 50